Skip Page Navigation
NASA JPL Caltech
NASA Logo - Jet Propulsion Laboratory + View the NASA Portal
+ Near-Earth Object (NEO) Program
Search JPL
JPL Home Earth Solar System Stars & Galaxies Technology
JPL Solar System Dynamics
BODIES ORBITS EPHEMERIDES TOOLS PHYSICAL DATA DISCOVERY FAQ SITE MAP
JPL Small-Body Database Browser
Search: [ help ]  
36235 Sergebaudo (1999 VJ)
Classification: Main-belt Asteroid          SPK-ID: 2036235
Ephemeris | Orbit Diagram | Orbital Elements | Physical Parameters | Discovery Circumstances ]

[ show orbit diagram ]
Orbital Elements at Epoch 2456400.5 (2013-Apr-18.0) TDB
Reference: JPL 1 (heliocentric ecliptic J2000)
 Element Value Uncertainty (1-sigma)   Units 
e .1338860037186015 1.1584e-07  
a 2.628584666815707 2.9143e-08 AU
q 2.27665397033976 3.1002e-07 AU
i 15.76181868586404 1.0292e-05 deg
node 54.54169841186985 3.3842e-05 deg
peri 334.6002512047315 5.1143e-05 deg
M 104.8311266004419 3.6856e-05 deg
tp 2455947.217309958299
(2012-Jan-20.71730996)
0.00015657 JED
period 1556.615613194455
4.26
2.5887e-05
7.087e-08
d
yr
n .2312709682136718 3.8462e-09 deg/d
Q 2.980515363291654 3.3045e-08 AU
  Orbit Determination Parameters
   # obs. used (total)      514  
   data-arc span      21968 days (60.15 yr)  
   first obs. used      1953-02-14  
   last obs. used      2013-04-08  
   planetary ephem.      DE405  
   SB-pert. ephem.      SB405-CPV-2  
   condition code      0  
   fit RMS      .56972  
   data source      ORB  
   producer      Otto Matic  
   solution date      2013-Apr-29 15:21:20  

Additional Information
 Earth MOID = 1.29181 AU 
 T_jup = 3.335 
[ show covariance matrix ]

Ephemeris | Orbit Diagram | Orbital Elements | Physical Parameters | Discovery Circumstances ]

Physical Parameter Table
Parameter Symbol Value Units Sigma Reference Notes
absolute magnitude H 14.6 mag n/a PDS3 (MPO 24498)  

36235 Sergebaudo           Discovered 1999 Nov. 1 by L. Sarounová at Ondrejov.
French conductor Serge Baudo (b. 1927) collaborates with the most distinguished symphonic orchestras. He worked regularly with Opera de Paris and Orchestre de Paris and was a music director of the Orchestra National de Lyon. Since 2001 he has been the chief conductor of the Prague Symphony Orchestra.
NOTE: some special characters may not display properly (any characters within {} are an attempt to place the proper accent above a character)
Reference: 20040306/MPCPages.arcLast Updated: 2004-03-08

Alternate Designations
 1999 VJ = 1990 UV3 
Ephemeris | Orbit Diagram | Orbital Elements | Physical Parameters | Discovery Circumstances ]
ABOUT SSD CREDITS/AWARDS PRIVACY/COPYRIGHT GLOSSARY LINKS
FirstGov 2013-May-23 10:05 UT
(server date/time)  
NASA Home Page
Site Manager:   Donald K. Yeomans
Webmaster  Alan B. Chamberlin